Location: Newark
(59.4564°N, 26.6917°E)
Time: 02:18:52
(UTC+00:00)

SR - Pass Details

Date: 26 November 2019
Orbit: 573 x 882 km, 66.7° (Epoch: 13 December)

Event Time Altitude Azimuth Distance (km) Brightness Sun altitude
Rises 13:09:57 0° 239° (WSW) 3,317 ? 0.8°
Reaches altitude 10° 13:12:20 10° 241° (WSW) 2,427 ? 0.6°
Maximum altitude 13:17:59 72° 326° (NW) 908 ? 0.1°
Drops below altitude 10° 13:23:57 10° 51° (NE) 2,549 ? -0.5°
Enters shadow 13:26:17 - 54° (NE) 3,415 ? -0.7°
Sets 13:26:30 0° 54° (NE) 3,495 - -0.7°
